Regional Weather Roundup
Issued by NWS Bismarck, ND

Home | Current Version | Previous Version | Text Only | Print | Product List | Glossary On
Versions: 1 2 3 4 5 6 7 8 9 10 11 12 13 14 15 16 17 18 19 20 21 22 23 24 25 26 27 28 29 30 31 32 33 34 35 36 37 38 39 40 41 42 43 44 45 46 47 48 49 50
000
ASUS43 KBIS 050410
RWRBIS

NWR BROADCAST TEXT
NATIONAL WEATHER SERVICE BISMARCK ND
1000 PM CST WED MAR 04 2015

NOTE: "FAIR" INDICATES FEW OR NO CLOUDS BELOW 12,000 FEET WITH NO
SIGNIFICANT WEATHER AND/OR OBSTRUCTIONS TO VISIBILITY.


CITY           SKY/WX    TMP DP  RH WIND       PRES   REMARKS
WILLISTON        N/A      1  -9  62 S3        30.23S
MINOT          MOCLDY    -7 -15  68 S5        30.28F WCI -18
MINOT AFB      MOCLDY   -10 -16  75 S5        30.28F WCI -22
BISMARCK       CLEAR     -5 -11  75 SE5       30.35R WCI -16
DICKINSON      CLEAR     -2 -10  69 S7        30.18S WCI -15
GARRISON         N/A    -10 -17  71 CALM      30.28S
HETTINGER ARPT CLEAR     -4 -11  72 SE3       30.22S
JAMESTOWN      CLEAR     -7 -14  71 W6        30.35S WCI -20
BEACH          FAIR       1  -2  85 S7        30.18R WCI -11
CARRINGTON     FAIR      -8 -13  77 MISG      30.35R
CROSBY         FAIR      -8 -15  71 S13       30.21F WCI -28
HARVEY         FAIR     -11 -17  77 SW5       30.32F WCI -23
HAZEN          FAIR      -8 -15  71 CALM      30.31S
LINTON         FAIR      -8 -11  84 E5        30.34S WCI -19
MANDAN         FAIR      -2  -9  71 SE6       30.32R WCI -14
OAKES            N/A     -4 -11  71 W6        30.40R WCI -16
RUGBY          FAIR     N/A N/A N/A W8        30.31S
TIOGA          FAIR     -15 -18  84 CALM      30.23S
WATFORD CITY   FAIR       0  -9  65 SE7       30.20S WCI -13
$$

CITY           SKY/WX    TMP DP  RH WIND       PRES   REMARKS
GRAND FORKS    CLEAR    -10 -16  74 W6        30.40R WCI -23
GRAND FORKS AF CLEAR    -10 -18  70 W6        30.39R WCI -24
DEVILS LAKE    PTCLDY    -8 -17  65 SW6       30.33R WCI -21
FARGO          CLEAR     -4 -12  68 W8        30.42R WCI -19
CANDO          FAIR     -13 -18  77 W6        30.32S WCI -27
CAVALIER       FAIR     -11 -17  77 SW3       30.37S
GWINNER        CLEAR     -2 N/A N/A NW10      30.41R WCI -19
ROLLA          FAIR      -9 -17  70 W13       30.25S WCI -30
WALHALLA         N/A     -4 -13  65 W7        30.35S WCI -18
$$

CITY           SKY/WX    TMP DP  RH WIND       PRES   REMARKS
ABERDEEN       PTCLDY    -9 -17  68 CALM      30.43R
MOBRIDGE       CLEAR      0  -9  65 SE5       30.33R WCI -10
BUFFALO          N/A      5  -6  60 S8        30.12S WCI  -8
RAPID CITY     CLEAR      4  -4  69 CALM      30.24R
GLASGOW        CLEAR      9  -2  61 E14       30.11F WCI  -7
SIDNEY         CLEAR      1  -8  66 S5        30.24S WCI  -8
WOLF POINT     CLEAR      7  -1  70 NE3       30.18S
GLENDIVE       PTCLDY     3  -8  60 S5        30.17S WCI  -6
MILES CITY     CLEAR     11  -4  51 MISG      30.15F
BAKER          CLEAR      6  -3  66 S8        30.17S WCI  -7
$$

CITY           SKY/WX    TMP DP  RH WIND       PRES   REMARKS
BILLINGS       CLEAR     22   6  50 W16       30.07R WCI   8
GREAT FALLS    CLEAR     28  13  53 SW13      30.01R WCI  17
REGINA         PTCLDY   -11 -18  70 SE13      30.16F WCI -32
ESTEVAN        CLEAR    -13 -18  77 SE7       30.21F WCI -29
$$



USA.gov is the U.S. government's official web portal to all federal, state and local government web resources and services.